This is the latest recevied weather packets stored in our database for station/object KR4DFQ. If no packets are shown the sender has not sent any weather packets the latest 10 day(s).
| Time | Temp. | Humidity | Pressure | Rain* | Wind** | Luminosity | Snow |
|---|---|---|---|---|---|---|---|
| 1787660726 | 30° C | 76% | 1017.8 hPa | 0 mm | - | 183 W/m² | - |
| 1787660421 | 30° C | 76% | 1018.1 hPa | 0 mm | - | 124 W/m² | - |
| 1787660120 | 29.44° C | 80% | 1017.9 hPa | 0 mm | - | 116 W/m² | - |
| 1787659820 | 28.89° C | 78% | 1017.9 hPa | 0 mm | - | 95 W/m² | - |
| 1787659518 | 28.89° C | 82% | 1017.9 hPa | 0 mm | - | 79 W/m² | - |
| 1787659214 | 28.33° C | 82% | 1017.9 hPa | 0 mm | - | 68 W/m² | - |
| 1787658913 | 28.33° C | 83% | 1017.8 hPa | 0 mm | - | 61 W/m² | - |
| 1787658608 | 27.78° C | 84% | 1017.9 hPa | 0 mm | - | 63 W/m² | - |
| 1787658304 | 26.67° C | 88% | 1017.9 hPa | 0 mm | - | 61 W/m² | - |
| 1787657999 | 26.67° C | 89% | 1018 hPa | 0 mm | - | 53 W/m² | - |
| 1787657694 | 26.11° C | 90% | 1017.8 hPa | 0 mm | - | 45 W/m² | - |
| 1787657390 | 26.11° C | 92% | 1017.7 hPa | 0 mm | - | 36 W/m² | - |
| 1787657085 | 25.56° C | 92% | 1017.7 hPa | 0 mm | - | 30 W/m² | - |
| 1787656782 | 25.56° C | 93% | 1017.7 hPa | 0 mm | - | 24 W/m² | - |
| 1787656482 | 25.56° C | 92% | 1017.6 hPa | 0 mm | - | 17 W/m² | - |
| 1787656177 | 25.56° C | 92% | 1017.6 hPa | 0 mm | - | 11 W/m² | - |
| 1787655874 | 25.56° C | 92% | 1017.8 hPa | 0 mm | - | 6 W/m² | - |
| 1787655573 | 25.56° C | 92% | 1017.8 hPa | 0 mm | - | 3 W/m² | - |
| 1787655272 | 25.56° C | 92% | 1017.6 hPa | 0 mm | - | 2 W/m² | - |
| 1787654968 | 25° C | 93% | 1017.6 hPa | 0 mm | - | 1 W/m² | - |
| 1787654664 | 25.56° C | 94% | 1017.6 hPa | 0 mm | - | 0 W/m² | - |
| 1787654359 | 25° C | 94% | 1017.6 hPa | 0 mm | - | 0 W/m² | - |
| 1787654055 | 25° C | 93% | 1017.4 hPa | 0 mm | - | 0 W/m² | - |
| 1787653754 | 25° C | 93% | 1017.7 hPa | 0 mm | - | 0 W/m² | - |
| 1787653450 | 25° C | 93% | 1017.5 hPa | 0 mm | - | 0 W/m² | - |
* Rain latest hour (hover to see other rain measurements)
** Current wind speed in m/s (hover to see current wind gust speed)